timestamp,surface_pressure_avg,surface_temp_avg,battery_voltage,lat,long
2018-09-11 00:00:00+00:00,370.908,16.7,13.05,47.84626,-54.09684
2018-09-11 00:10:00+00:00,370.5546,16.71,12.97,47.84626,-54.09684
2018-09-11 00:20:00+00:00,371.4846,16.72,13.05,47.84626,-54.09684
2018-09-11 00:30:00+00:00,373.4163,16.7,13.05,47.84626,-54.09684
2018-09-11 00:40:00+00:00,371.1696,16.7,13.13,47.84626,-54.09684
2018-09-11 00:50:00+00:00,367.8779,16.72,13.13,47.84626,-54.09684
2018-09-11 01:00:00+00:00,368.1396,16.7,13.05,47.84626,-54.09684
2018-09-11 01:10:00+00:00,367.1346,16.7,12.97,47.84626,-54.09684
2018-09-11 01:20:00+00:00,365.6462,16.7,13.05,47.84626,-54.09684
2018-09-11 01:30:00+00:00,363.7928,16.7,13.05,47.84626,-54.09684
2018-09-11 01:40:00+00:00,357.1446,16.7,13.05,47.84626,-54.09684
2018-09-11 01:50:00+00:00,349.733,16.7,13.05,47.84626,-54.09684
2018-09-11 02:00:00+00:00,349.1429,16.7,13.05,47.84626,-54.09684
2018-09-11 02:10:00+00:00,342.5895,16.7,12.97,47.84626,-54.09684
2018-09-11 02:20:00+00:00,329.9896,16.7,13.05,47.84626,-54.09684
2018-09-11 02:30:00+00:00,323.843,16.7,13.05,47.84626,-54.09684
2018-09-11 02:40:00+00:00,316.833,16.7,13.05,47.84626,-54.09684
2018-09-11 02:50:00+00:00,301.5797,16.7,13.05,47.84626,-54.09684
2018-09-11 03:00:00+00:00,289.1997,16.7,12.97,47.84626,-54.09684
2018-09-11 03:10:00+00:00,283.0897,16.7,12.97,47.84626,-54.09684
2018-09-11 03:20:00+00:00,270.9764,16.7,12.97,47.84626,-54.09684
2018-09-11 03:30:00+00:00,256.7031,16.7,13.05,47.84626,-54.09684
2018-09-11 03:40:00+00:00,248.0798,16.7,13.05,47.84626,-54.09684
2018-09-11 03:50:00+00:00,238.5181,16.7,13.05,47.84626,-54.09684
2018-09-11 04:00:00+00:00,223.9348,16.69,12.97,47.84626,-54.09684
2018-09-11 04:10:00+00:00,209.7365,16.68,12.89,47.84626,-54.09684
2018-09-11 04:20:00+00:00,201.6314,16.67,12.97,47.84626,-54.09684
2018-09-11 04:30:00+00:00,192.6014,16.66,12.97,47.84626,-54.09684
2018-09-11 04:40:00+00:00,181.1381,16.7,12.97,47.84626,-54.09684
2018-09-11 04:50:00+00:00,174.0364,16.7,13.05,47.84626,-54.09684
2018-09-11 05:00:00+00:00,170.1932,16.7,12.97,47.84626,-54.09684
2018-09-11 05:10:00+00:00,163.6081,16.7,12.89,47.84626,-54.09684
2018-09-11 05:20:00+00:00,158.6248,16.77,12.97,47.84626,-54.09684
2018-09-11 05:30:00+00:00,157.5932,16.8,12.97,47.84626,-54.09684
2018-09-11 05:40:00+00:00,154.5215,16.8,12.97,47.84626,-54.09684
2018-09-11 05:50:00+00:00,149.4598,16.8,12.97,47.84626,-54.09684
2018-09-11 06:00:00+00:00,149.6714,16.8,12.97,47.84626,-54.09684
2018-09-11 06:10:00+00:00,150.1415,16.8,12.89,47.84626,-54.09684
2018-09-11 06:20:00+00:00,146.3181,16.8,12.97,47.84626,-54.09684
2018-09-11 06:30:00+00:00,148.0065,16.8,12.97,47.84626,-54.09684
2018-09-11 06:40:00+00:00,152.6949,16.8,12.97,47.84626,-54.09684
2018-09-11 06:50:00+00:00,153.9482,16.8,12.97,47.84626,-54.09684
2018-09-11 07:00:00+00:00,158.0915,16.8,12.89,47.84626,-54.09684
2018-09-11 07:10:00+00:00,164.7965,16.8,12.81,47.84626,-54.09684
2018-09-11 07:20:00+00:00,169.8965,16.8,12.89,47.84626,-54.09684
2018-09-11 07:30:00+00:00,174.6048,16.8,12.89,47.84626,-54.09684
2018-09-11 07:40:00+00:00,180.1265,16.8,12.89,47.84626,-54.09684
2018-09-11 07:50:00+00:00,185.6131,16.8,12.97,47.84626,-54.09684
2018-09-11 08:00:00+00:00,186.3831,16.8,12.89,47.84626,-54.09684
2018-09-11 08:10:00+00:00,186.2732,16.8,12.81,47.84626,-54.09684
2018-09-11 08:20:00+00:00,192.3631,16.8,12.89,47.84626,-54.09684
2018-09-11 08:30:00+00:00,199.0348,16.8,12.89,47.84626,-54.09684
2018-09-11 08:40:00+00:00,201.7831,16.8,12.89,47.84626,-54.09684
2018-09-11 08:50:00+00:00,208.2748,16.8,12.89,47.84626,-54.09684
2018-09-11 09:00:00+00:00,217.8565,16.79,12.81,47.84626,-54.09684
2018-09-11 09:10:00+00:00,222.4081,16.78,12.81,47.84626,-54.09684
2018-09-11 09:20:00+00:00,225.1348,16.79,12.89,47.84626,-54.09684
2018-09-11 09:30:00+00:00,234.5848,16.77,13.05,47.84626,-54.09684
2018-09-11 09:40:00+00:00,244.1681,16.7,13.37,47.84626,-54.09684
2018-09-11 09:50:00+00:00,250.1581,16.74,13.76,47.84626,-54.09684
2018-09-11 10:00:00+00:00,255.7764,16.77,13.84,47.84626,-54.09684
2018-09-11 10:10:00+00:00,265.7964,16.7,13.68,47.84626,-54.09684
2018-09-11 10:20:00+00:00,277.4047,16.69,13.92,47.84626,-54.09684
2018-09-11 10:30:00+00:00,285.9597,16.7,14.0,47.84626,-54.09684
2018-09-11 10:40:00+00:00,293.6164,16.7,14.24,47.84626,-54.09684
2018-09-11 10:50:00+00:00,303.5296,16.7,14.32,47.84626,-54.09684
2018-09-11 11:00:00+00:00,312.973,16.69,14.24,47.84626,-54.09684
2018-09-11 11:10:00+00:00,320.9947,16.69,14.24,47.84626,-54.09684
2018-09-11 11:20:00+00:00,328.3396,16.66,15.75,47.84626,-54.09684
2018-09-11 11:30:00+00:00,337.4379,16.65,15.11,47.84626,-54.09684
2018-09-11 11:40:00+00:00,343.3563,16.69,15.51,47.84626,-54.09684
2018-09-11 11:50:00+00:00,350.1797,16.7,16.23,47.84626,-54.09684
2018-09-11 12:00:00+00:00,359.458,16.69,14.72,47.84626,-54.09684
2018-09-11 12:10:00+00:00,362.1761,16.7,14.64,47.84626,-54.09684
2018-09-11 12:20:00+00:00,364.1096,16.72,14.64,47.84626,-54.09684
2018-09-11 12:30:00+00:00,368.5746,16.73,14.56,47.84626,-54.09684
2018-09-11 12:40:00+00:00,372.0746,16.74,14.48,47.84626,-54.09684
2018-09-11 12:50:00+00:00,369.1945,16.8,14.48,47.84626,-54.09684
2018-09-11 13:00:00+00:00,368.0829,16.8,14.4,47.84626,-54.09684
2018-09-11 13:10:00+00:00,368.8864,16.8,14.32,47.84626,-54.09684
2018-09-11 13:20:00+00:00,366.8328,16.8,14.48,47.84626,-54.09684
2018-09-11 13:30:00+00:00,359.8763,16.81,14.48,47.84626,-54.09684
2018-09-11 13:40:00+00:00,356.4264,16.86,14.56,47.84626,-54.09684
2018-09-11 13:50:00+00:00,353.7663,16.86,14.56,47.84626,-54.09684
2018-09-11 14:00:00+00:00,347.5397,16.88,14.56,47.84626,-54.09684
2018-09-11 14:10:00+00:00,342.7795,16.89,14.48,47.84626,-54.09684
2018-09-11 14:20:00+00:00,338.1697,16.9,14.64,47.84626,-54.09684
2018-09-11 14:30:00+00:00,328.6096,16.9,14.56,47.84626,-54.09684
2018-09-11 14:40:00+00:00,319.133,16.9,14.56,47.84626,-54.09684
2018-09-11 14:50:00+00:00,313.5364,16.9,14.64,47.84626,-54.09684
2018-09-11 15:00:00+00:00,308.7031,16.9,14.64,47.84626,-54.09684
2018-09-11 15:10:00+00:00,299.248,16.9,14.64,47.84626,-54.09684
2018-09-11 15:20:00+00:00,290.1848,16.9,14.64,47.84626,-54.09684
2018-09-11 15:30:00+00:00,283.1981,16.9,14.72,47.84626,-54.09684
2018-09-11 15:40:00+00:00,273.4881,16.9,14.64,47.84626,-54.09684
2018-09-11 15:50:00+00:00,260.3947,16.9,14.64,47.84626,-54.09684
2018-09-11 16:00:00+00:00,246.1948,16.9,14.56,47.84626,-54.09684
2018-09-11 16:10:00+00:00,234.8047,16.9,14.48,47.84626,-54.09684
2018-09-11 16:20:00+00:00,221.5431,16.9,14.4,47.84626,-54.09684
2018-09-11 16:30:00+00:00,208.2398,16.9,14.32,47.84626,-54.09684
2018-09-11 16:40:00+00:00,198.2564,16.9,14.4,47.84626,-54.09684
2018-09-11 16:50:00+00:00,191.6115,16.9,14.4,47.84626,-54.09684
2018-09-11 17:00:00+00:00,181.8365,16.9,14.32,47.84626,-54.09684
2018-09-11 17:10:00+00:00,176.2448,16.9,14.4,47.84626,-54.09684
2018-09-11 17:20:00+00:00,175.5015,16.93,14.48,47.84626,-54.09684
2018-09-11 17:30:00+00:00,170.8331,16.96,14.4,47.84626,-54.09684
2018-09-11 17:40:00+00:00,160.9315,16.99,14.48,47.84626,-54.09684
2018-09-11 17:50:00+00:00,155.8515,17.0,14.4,47.84626,-54.09684
2018-09-11 18:00:00+00:00,156.1415,17.0,14.32,47.84626,-54.09684
2018-09-11 18:10:00+00:00,152.5381,17.0,14.24,47.84626,-54.09684
2018-09-11 18:20:00+00:00,152.9482,17.0,14.32,47.84626,-54.09684
2018-09-11 18:30:00+00:00,157.4598,17.0,14.24,47.84626,-54.09684
2018-09-11 18:40:00+00:00,159.4182,16.99,14.24,47.84626,-54.09684
2018-09-11 18:50:00+00:00,159.9682,16.96,14.24,47.84626,-54.09684
2018-09-11 19:00:00+00:00,162.5165,16.95,14.16,47.84626,-54.09684
2018-09-11 19:10:00+00:00,164.8382,16.9,14.0,47.84626,-54.09684
2018-09-11 19:20:00+00:00,166.0699,16.9,14.08,47.84626,-54.09684
2018-09-11 19:30:00+00:00,171.0948,16.9,14.08,47.84626,-54.09684
2018-09-11 19:40:00+00:00,175.0948,16.87,14.08,47.84626,-54.09684
2018-09-11 19:50:00+00:00,175.1782,16.83,14.08,47.84626,-54.09684
2018-09-11 20:00:00+00:00,183.1798,16.82,14.0,47.84626,-54.09684
2018-09-11 20:10:00+00:00,194.2264,16.81,13.84,47.84626,-54.09684
2018-09-11 20:20:00+00:00,197.9214,16.8,13.84,47.84626,-54.09684
2018-09-11 20:30:00+00:00,200.3831,16.81,13.84,47.84626,-54.09684
2018-09-11 20:40:00+00:00,206.3081,16.83,13.84,47.84626,-54.09684
2018-09-11 20:50:00+00:00,207.5865,16.83,13.76,47.84626,-54.09684
2018-09-11 21:00:00+00:00,206.0298,16.81,13.68,47.84626,-54.09684
2018-09-11 21:10:00+00:00,215.0014,16.8,13.53,47.84626,-54.09684
2018-09-11 21:20:00+00:00,225.5814,16.8,13.53,47.84626,-54.09684
2018-09-11 21:30:00+00:00,228.8398,16.8,13.44,47.84626,-54.09684
2018-09-11 21:40:00+00:00,234.088,16.8,13.44,47.84626,-54.09684
2018-09-11 21:50:00+00:00,245.4581,16.8,13.37,47.84626,-54.09684
2018-09-11 22:00:00+00:00,254.4164,16.8,13.29,47.84626,-54.09684
2018-09-11 22:10:00+00:00,261.2747,16.85,13.21,47.84626,-54.09684
2018-09-11 22:20:00+00:00,268.4214,16.88,13.21,47.84626,-54.09684
2018-09-11 22:30:00+00:00,276.593,16.89,13.21,47.84626,-54.09684
2018-09-11 22:40:00+00:00,281.4464,16.89,13.21,47.84626,-54.09684
2018-09-11 22:50:00+00:00,288.2331,16.9,13.13,47.84626,-54.09684
2018-09-11 23:00:00+00:00,298.3614,16.9,13.13,47.84626,-54.09684
2018-09-11 23:10:00+00:00,311.3147,16.9,13.05,47.84626,-54.09684
2018-09-11 23:20:00+00:00,321.4846,16.9,13.05,47.84626,-54.09684
2018-09-11 23:30:00+00:00,329.4213,16.9,13.13,47.84626,-54.09684
2018-09-11 23:40:00+00:00,339.463,16.9,13.13,47.84626,-54.09684
2018-09-11 23:50:00+00:00,350.4913,16.9,13.13,47.84626,-54.09684
